Home   Weather   Weil am Rhein   Past weeks

Flag for Germany Past Weather in Weil am Rhein, Baden-Württemberg, Germany — Yesterday and Last 2 Weeks

Now
20 °F

Fog.


Feels Like: 15 °F
Forecast: 17 / 28 °F
Wind: 3 mph from Northeast

Location: Bale-Mulhouse

Current Time: Jan 23, 2017 at 9:57:23 am

Latest Report: Jan 23, 2017 at 9:00 am


Visibility: 1 mi

Pressure: 30.35 "Hg

Humidity: 93%

Dew Point: 19 °F

Location of Weil am RheinLocation

Past Weather in Weil am Rhein — Graph

°F

Weil am Rhein Temperature Yesterday

Maximum temperature yesterday: 31 °F (at 3:00 pm)
Minimum temperature yesterday: 13 °F (at 6:00 am)
Average temperature yesterday: 21 °F

High & Low Weather Summary for the Past Weeks

 TemperatureHumidityPressure
High50 °F (Jan 12, 11:00 pm)98% (Jan 10, 2:00 pm)30.57 "Hg (Jan 10, 2:00 pm)
Low13 °F (Jan 22, 6:00 am)51% (Jan 18, 3:00 pm)29.47 "Hg (Jan 12, 11:00 pm)
Average29 °F83%30.26 "Hg
* Reported Jan 8 8:00 am — Jan 23 8:00 am, Weil am Rhein, Weather by CustomWeather, © 2017

Note: Actual official high and low records may vary slightly from our data, if they occured in-between our weather recording intervals... More about our weather records

Advertising

Weil am Rhein Weather History for the Previous 24 Hours

Scroll right to see more
 ConditionsComfort  
Time TempWeatherWind HumidityBarometerVisibility
8:00 am
Mon, Jan 23
20 °FFog.3 mph93%30.34 "Hg1 mi
7:00 am21 °FFog.3 mph93%30.33 "Hg2 mi
6:00 am21 °FFog.1 mph92%30.33 "Hg2 mi
5:00 am21 °FFog.No wind94%30.33 "Hg2 mi
4:00 am21 °FLow clouds.3 mph94%30.33 "Hg2 mi
3:00 am21 °FLow clouds.5 mph94%30.33 "Hg2 mi
2:00 am20 °FLow clouds.No wind93%30.34 "Hg2 mi
1:00 am20 °FLow clouds.3 mph94%30.35 "Hg1 mi
12:00 am19 °FFog.3 mph94%30.35 "Hg0 mi
11:00 pm
Sun, Jan 22
20 °FFog.2 mph95%30.34 "Hg0 mi
10:00 pm20 °FFog.1 mph94%30.34 "Hg0 mi
9:00 pm20 °FFog.3 mph95%30.34 "Hg0 mi
8:00 pm21 °FFog.6 mph97%30.33 "Hg0 mi
7:00 pm20 °FFog.7 mph92%30.33 "Hg2 mi
6:00 pm23 °FPassing clouds.3 mph80%30.30 "Hg5 mi
5:00 pm27 °FPartly sunny.3 mph75%30.29 "Hg6 mi
4:00 pm30 °FPassing clouds.5 mph69%30.28 "Hg6 mi
3:00 pm31 °FChilly.5 mph66%30.27 "Hg5 mi
2:00 pm30 °FPassing clouds.6 mph69%30.28 "Hg6 mi
1:00 pm29 °FPassing clouds.6 mph70%30.30 "Hg6 mi
12:00 pm28 °FPassing clouds.3 mph77%30.33 "Hg5 mi
11:00 am26 °FPassing clouds.6 mph83%30.35 "Hg4 mi
10:00 am24 °FFog.7 mph90%30.35 "Hg3 mi
9:00 am17 °FFog.2 mph88%30.37 "Hg3 mi
Weather by CustomWeather, © 2017

See weather overviewHow to use our weather pages